Bay Point Middle School FL US WEATHERSTEM current weather conditions

sailwx.info

Wind from 070 at 5 knots gusting 11

Air temperature 12.6° C
Dewpoint 11.5° C

Last reported at 2020-Feb-23 10:00 UTC.
Time now 2020-Feb-23 11:14 UTC

Location: N 27°43' W 082°40'.
View on Google Maps.

See reports from other nearby stations

  
Tides and Currents Weather Stations Pressure Air Temp Water Temp Dewpoint Dewpoint Depression Visibility Wind Speed Wind Dir Waves Ship Positions
date/time (UTC)wind fromknots sea level pressurealtimeterstation pressurevisibilityair tempwater tempwave heightnotes
2020-Feb-23 10:00 070 5 gusting 11 12.6
2020-Feb-23 09:40 031 7 gusting 12 12.7
2020-Feb-23 09:30 028 7 gusting 10 12.7
2020-Feb-23 09:20 047 8 gusting 10 12.8
2020-Feb-23 09:10 040 4 gusting 10 12.8
2020-Feb-23 09:00 017 6 gusting 9 12.8
2020-Feb-23 08:40 051 4 gusting 11 12.7
2020-Feb-23 08:30 065 5 gusting 13 12.7
2020-Feb-23 08:20 047 6 gusting 13 12.7
2020-Feb-23 08:10 024 6 gusting 13 12.8
2020-Feb-23 08:00 043 4 gusting 13 12.8
2020-Feb-23 07:40 043 3 gusting 11 12.8
2020-Feb-23 07:30 037 6 gusting 11 12.8
2020-Feb-23 07:20 037 5 gusting 11 12.8
2020-Feb-23 07:10 039 10 gusting 11 12.9
2020-Feb-23 07:00 051 5 gusting 13 12.9
2020-Feb-23 06:40 037 9 gusting 12 13.0
2020-Feb-23 06:30 067 5 gusting 13 13.1
2020-Feb-23 06:20 024 5 gusting 13 13.2
2020-Feb-23 06:10 045 9 gusting 11 13.2
2020-Feb-23 06:00 044 9 gusting 11 13.3
2020-Feb-23 05:40 033 7 gusting 11 13.4
2020-Feb-23 05:30 055 7 gusting 11 13.4
2020-Feb-23 05:20 039 9 gusting 12 13.5
2020-Feb-23 05:10 043 7 gusting 10 13.7
2020-Feb-23 05:00 037 4 gusting 13 13.8
2020-Feb-23 04:40 053 6 gusting 12 13.9
2020-Feb-23 04:30 071 5 gusting 13 14.1
2020-Feb-23 04:10 024 8 gusting 16 14.3
2020-Feb-23 04:00 047 9 gusting 17 14.4
2020-Feb-23 03:40 062 2 gusting 13 14.7
2020-Feb-23 03:30 038 6 gusting 13 14.8
2020-Feb-23 03:20 044 4 gusting 10 15.0
2020-Feb-23 03:10 040 7 gusting 10 15.2
2020-Feb-23 03:00 044 4 gusting 11 15.3
2020-Feb-23 02:40 032 6 gusting 13 15.6
2020-Feb-23 02:30 005 9 gusting 17 15.7
2020-Feb-23 02:20 022 10 gusting 15 15.9
2020-Feb-23 02:10 042 10 gusting 15 16.1
2020-Feb-23 02:00 037 6 gusting 13 16.3
2020-Feb-23 01:40 013 9 gusting 13 16.7
2020-Feb-23 01:30 037 8 gusting 15 16.8
2020-Feb-23 01:20 026 13 gusting 18 17.0
2020-Feb-23 01:10 013 6 gusting 16 17.3
2020-Feb-23 01:00 038 9 gusting 16 17.6
2020-Feb-23 00:40 053 13 gusting 15 17.9
2020-Feb-23 00:30 042 13 gusting 17 18.1
2020-Feb-23 00:20 038 7 gusting 16 18.6
2020-Feb-23 00:10 035 8 gusting 12 18.9
2020-Feb-23 00:00 054 9 gusting 11 19.0
2020-Feb-22 23:40 030 3 gusting 4 19.4
2020-Feb-22 23:30 030 3 gusting 5 19.7
2020-Feb-22 23:20 350 1 gusting 6 20.0
2020-Feb-22 23:10 20.2
2020-Feb-22 23:00 019 2 gusting 7 20.3
2020-Feb-22 22:40 20.4
2020-Feb-22 22:30 20.6
2020-Feb-22 22:20 20.5
2020-Feb-22 22:10 20.6
2020-Feb-22 22:00 20.5
2020-Feb-22 21:40 20.5
2020-Feb-22 21:30 20.4
2020-Feb-22 21:20 20.4
2020-Feb-22 21:10 20.4
2020-Feb-22 21:00 20.8
2020-Feb-22 20:50 20.6
2020-Feb-22 20:40 20.3
2020-Feb-22 20:30 20.0
2020-Feb-22 20:10 19.8
2020-Feb-22 20:00 19.7
2020-Feb-22 19:50 19.6
2020-Feb-22 19:40 19.3
2020-Feb-22 19:30 18.9
2020-Feb-22 19:20 18.8
2020-Feb-22 19:10 18.8
2020-Feb-22 19:00 18.7
2020-Feb-22 18:40 17.9
2020-Feb-22 18:30 17.8
2020-Feb-22 18:20 17.8
2020-Feb-22 18:10 17.7
2020-Feb-22 18:00 066 5 gusting 13 17.2
2020-Feb-22 17:40 16.7
2020-Feb-22 17:30 16.4
2020-Feb-22 17:20 16.2
2020-Feb-22 17:10 15.9
2020-Feb-22 17:00 15.7
2020-Feb-22 16:40 14.8
2020-Feb-22 16:30 14.4
2020-Feb-22 16:20 14.1
2020-Feb-22 16:10 13.9
2020-Feb-22 16:00 13.8
2020-Feb-22 15:40 024 14 gusting 17 13.3
2020-Feb-22 15:30 040 3 gusting 12 12.9
2020-Feb-22 15:20 009 11 gusting 17 12.2
2020-Feb-22 15:00 055 6 gusting 15 11.6
2020-Feb-22 14:50 015 12 gusting 16 11.1
2020-Feb-22 14:40 049 13 gusting 16 10.9
2020-Feb-22 14:30 028 7 gusting 19 10.5
2020-Feb-22 14:20 005 11 gusting 18 10.2
2020-Feb-22 14:10 063 6 gusting 18 9.9
2020-Feb-22 14:00 029 11 gusting 19 9.7
2020-Feb-22 13:50 044 9 gusting 19 9.3
2020-Feb-22 13:40 043 12 gusting 19 9.1
2020-Feb-22 13:30 039 9 gusting 17 8.8
2020-Feb-22 13:20 013 9 gusting 17 8.3
2020-Feb-22 13:10 043 8 gusting 14 8.1
2020-Feb-22 13:00 012 7 gusting 14 7.8
2020-Feb-22 12:50 029 8 gusting 12 7.4
2020-Feb-22 12:40 042 3 gusting 9 7.3
2020-Feb-22 12:30 044 5 gusting 13 7.2
2020-Feb-22 12:20 032 4 gusting 11 7.1
2020-Feb-22 12:10 355 4 gusting 12 7.0
2020-Feb-22 12:00 013 7 gusting 11 6.9
2020-Feb-22 11:50 028 5 gusting 9 6.8
2020-Feb-22 11:40 026 8 gusting 10 6.8
2020-Feb-22 11:30 005 6 gusting 11 6.8
2020-Feb-22 11:20 032 4 gusting 12 6.7
2020-Feb-22 11:10 017 9 gusting 11 6.7
2020-Feb-22 11:00 005 7 gusting 13 6.6
2020-Feb-22 10:50 019 8 gusting 13 6.6
2020-Feb-22 10:40 039 4 gusting 13 6.6
2020-Feb-22 10:30 339 7 gusting 12 6.6
2020-Feb-22 10:20 009 8 gusting 17 6.5
2020-Feb-22 10:10 019 7 gusting 13 6.5
2020-Feb-22 10:00 041 6 gusting 13 6.6
2020-Feb-22 09:50 025 6 gusting 14 6.8
2020-Feb-22 09:40 013 7 gusting 13 6.9
2020-Feb-22 09:30 032 6 gusting 13 7.1
2020-Feb-22 09:20 022 4 gusting 15 7.1
2020-Feb-22 09:00 346 8 gusting 13 7.1
2020-Feb-22 08:50 344 13 gusting 13 7.1
2020-Feb-22 08:40 034 6 gusting 13 7.1
2020-Feb-22 08:30 018 10 gusting 16 7.2
2020-Feb-22 08:20 040 4 gusting 13 7.2
2020-Feb-22 08:10 017 6 gusting 16 7.2
2020-Feb-22 08:00 010 7 gusting 14 7.2
2020-Feb-22 07:50 346 7 gusting 13 7.3
2020-Feb-22 07:40 026 14 gusting 15 7.3
2020-Feb-22 07:30 020 6 gusting 13 7.3
2020-Feb-22 07:20 026 12 gusting 13 7.4
2020-Feb-22 07:10 019 9 gusting 13 7.4
2020-Feb-22 07:00 009 8 gusting 14 7.5
2020-Feb-22 06:50 029 3 gusting 15 7.6
2020-Feb-22 06:40 022 8 gusting 14 7.6
2020-Feb-22 06:30 019 6 gusting 16 7.7
2020-Feb-22 06:20 025 5 gusting 15 7.7
2020-Feb-22 06:10 355 7 gusting 15 7.8
2020-Feb-22 06:00 042 13 gusting 16 7.8
2020-Feb-22 05:50 014 6 gusting 15 7.9
2020-Feb-22 05:40 022 8 gusting 16 7.9
2020-Feb-22 05:30 024 14 gusting 18 8.0
2020-Feb-22 05:20 028 8 gusting 19 8.1
2020-Feb-22 05:10 329 7 gusting 19 8.1
2020-Feb-22 05:00 040 15 gusting 19 8.2
2020-Feb-22 04:50 038 11 gusting 18 8.2
2020-Feb-22 04:40 009 10 gusting 18 8.3
2020-Feb-22 04:30 045 10 gusting 19 8.3
2020-Feb-22 04:20 027 19 gusting 22 8.3
2020-Feb-22 04:10 017 8 gusting 22 8.4
2020-Feb-22 04:00 360 7 gusting 24 8.4
2020-Feb-22 03:50 024 13 gusting 23 8.4
2020-Feb-22 03:40 046 15 gusting 20 8.5
2020-Feb-22 03:30 061 15 gusting 18 8.6
2020-Feb-22 03:20 040 9 gusting 20 8.7
2020-Feb-22 03:10 037 11 gusting 21 8.7
2020-Feb-22 03:00 042 13 gusting 19 8.8
2020-Feb-22 02:50 013 11 gusting 19 8.8
2020-Feb-22 02:40 015 9 gusting 16 8.8
2020-Feb-22 02:30 355 6 gusting 19 8.9
2020-Feb-22 02:20 067 17 gusting 21 9.0
2020-Feb-22 02:10 046 9 gusting 19 9.3
2020-Feb-22 02:00 036 11 gusting 18 9.4
2020-Feb-22 01:50 013 19 gusting 19 9.5
2020-Feb-22 01:40 067 10 gusting 18 9.6
2020-Feb-22 01:30 009 8 gusting 15 9.6
2020-Feb-22 01:20 355 13 gusting 19 9.7
2020-Feb-22 01:10 028 9 gusting 17 9.6
2020-Feb-22 01:00 024 11 gusting 19 9.6
2020-Feb-22 00:50 355 11 gusting 20 9.5
2020-Feb-22 00:40 360 15 gusting 21 9.6
2020-Feb-22 00:30 054 13 gusting 21 9.7
2020-Feb-22 00:20 045 14 gusting 19 9.8
2020-Feb-22 00:00 059 13 gusting 20 9.8
2020-Feb-21 23:50 041 8 gusting 19 10.1
2020-Feb-21 23:40 028 7 gusting 18 10.1
2020-Feb-21 23:30 349 14 gusting 21 10.1
2020-Feb-21 23:20 016 16 gusting 20 10.2
2020-Feb-21 23:10 082 11 gusting 21 10.4
2020-Feb-21 22:50 055 13 gusting 25 10.5
2020-Feb-21 22:40 034 16 gusting 19 10.7
2020-Feb-21 22:30 360 13 gusting 19 10.7
2020-Feb-21 22:20 042 14 gusting 19 10.9
2020-Feb-21 22:00 030 13 gusting 20 11.3
2020-Feb-21 21:50 029 9 gusting 19 11.6
2020-Feb-21 21:30 043 13 gusting 20 11.8
2020-Feb-21 21:20 005 8 gusting 20 12.2
2020-Feb-21 21:10 032 13 gusting 20 12.4
2020-Feb-21 21:00 029 10 gusting 22 12.4
2020-Feb-21 20:50 018 11 gusting 17 12.8
2020-Feb-21 20:40 036 10 gusting 16 13.1
2020-Feb-21 20:30 360 13 gusting 19 12.9
2020-Feb-21 20:20 355 8 gusting 17 13.0
2020-Feb-21 20:10 028 8 gusting 19 13.3
2020-Feb-21 20:00 029 13 gusting 19 13.3
2020-Feb-21 19:50 005 13 gusting 16 13.4
2020-Feb-21 19:30 013 13 gusting 19 13.3
2020-Feb-21 19:20 013 6 gusting 21 13.3
2020-Feb-21 19:10 348 7 gusting 19 13.4
2020-Feb-21 19:00 360 11 gusting 15 13.8
2020-Feb-21 18:50 036 10 gusting 19 13.6
2020-Feb-21 18:40 033 10 gusting 20 13.4
2020-Feb-21 18:30 026 13 gusting 20 13.6
2020-Feb-21 18:20 049 13 gusting 19 13.3
2020-Feb-21 18:10 019 8 gusting 18 13.6
2020-Feb-21 18:00 339 10 gusting 21 13.4
2020-Feb-21 17:50 034 12 gusting 20 13.1
2020-Feb-21 17:30 005 10 gusting 21 13.0
2020-Feb-21 17:20 017 17 gusting 17 12.9
2020-Feb-21 17:10 043 13 gusting 19 12.6
2020-Feb-21 17:00 032 8 gusting 20 12.3
2020-Feb-21 16:50 012 9 gusting 20 12.3
2020-Feb-21 16:40 009 13 gusting 16 12.1
2020-Feb-21 16:30 032 12 gusting 19 11.9
2020-Feb-21 16:20 038 10 gusting 19 12.1
2020-Feb-21 16:10 036 6 gusting 26 11.9
2020-Feb-21 16:00 014 10 gusting 22 11.5
2020-Feb-21 15:50 015 11 gusting 19 11.4
2020-Feb-21 15:40 034 13 gusting 20 11.3
2020-Feb-21 15:30 005 9 gusting 17 11.3
2020-Feb-21 15:20 038 7 gusting 19 11.4
2020-Feb-21 15:10 355 11 gusting 18 11.4
2020-Feb-21 15:00 011 7 gusting 19 11.6
2020-Feb-21 14:50 009 13 gusting 19 11.2
2020-Feb-21 14:40 346 9 gusting 19 11.0
2020-Feb-21 14:30 355 8 gusting 19 10.8
2020-Feb-21 14:20 005 7 gusting 18 11.3
2020-Feb-21 14:10 018 12 gusting 18 11.6
2020-Feb-21 14:00 350 9 gusting 20 11.5
2020-Feb-21 13:50 015 12 gusting 16 11.6
2020-Feb-21 13:30 005 12 gusting 15 11.4
2020-Feb-21 13:20 360 9 gusting 16 11.9
2020-Feb-21 13:10 010 8 gusting 21 12.1
2020-Feb-21 13:00 028 12 gusting 20 12.2
2020-Feb-21 12:50 346 9 gusting 19 12.3
2020-Feb-21 12:30 037 12 gusting 15 12.7
2020-Feb-21 12:20 045 13 gusting 20 12.4
2020-Feb-21 12:10 042 12 gusting 18 12.6
2020-Feb-21 12:00 040 6 gusting 16 12.8
2020-Feb-21 11:50 057 7 gusting 20 13.1
2020-Feb-21 11:40 027 10 gusting 22 13.1
2020-Feb-21 11:30 027 13 gusting 19 13.3
2020-Feb-21 11:20 015 15 gusting 19 13.7
2020-Feb-21 11:10 036 9 gusting 19 13.8
2020-Feb-21 11:00 005 15 gusting 17 14.1